Time,TemperatureF,DewpointF,PressureIn,WindDirection,WindDirectionDegrees,WindSpeedMPH,WindSpeedGustMPH,Humidity,HourlyPrecipIn,Conditions,Clouds,dailyrainin,SoftwareType,DateUTC
2013-02-08 00:09:00,51.3,39.9,29.98,WNW,296,8.0,8.0,65,0.00,,,0.00,Wunderground v.1.15,2013-02-08 08:09:00,
2013-02-08 00:19:00,51.1,39.3,29.97,WNW,292,8.0,8.0,64,0.00,,,0.00,Wunderground v.1.15,2013-02-08 08:19:00,
2013-02-08 00:30:00,51.0,38.0,29.97,WNW,292,9.0,9.0,61,0.00,,,0.00,Wunderground v.1.15,2013-02-08 08:30:00,
2013-02-08 00:40:00,51.1,38.1,29.97,West,277,8.0,8.0,61,0.00,,,0.00,Wunderground v.1.15,2013-02-08 08:40:00,
2013-02-08 00:50:00,51.3,39.1,29.97,WSW,258,9.0,20.0,63,0.00,,,0.00,Wunderground v.1.15,2013-02-08 08:50:00,
2013-02-08 00:59:00,51.0,39.6,29.97,WNW,299,11.0,11.0,65,0.00,,,0.00,Wunderground v.1.15,2013-02-08 08:59:00,
2013-02-08 01:09:00,50.8,39.8,29.97,WNW,289,11.0,11.0,66,0.00,,,0.00,Wunderground v.1.15,2013-02-08 09:09:00,
2013-02-08 01:20:00,50.5,39.2,29.97,West,278,8.0,17.0,65,0.00,,,0.00,Wunderground v.1.15,2013-02-08 09:20:00,
2013-02-08 01:30:00,50.5,39.2,29.97,NW,314,9.0,13.0,65,0.00,,,0.00,Wunderground v.1.15,2013-02-08 09:30:00,
2013-02-08 01:40:00,50.4,37.9,29.97,West,280,9.0,11.0,62,0.00,,,0.00,Wunderground v.1.15,2013-02-08 09:40:00,
2013-02-08 01:49:00,50.4,37.9,29.97,WNW,302,9.0,9.0,62,0.00,,,0.00,Wunderground v.1.15,2013-02-08 09:49:00,
2013-02-08 01:59:00,50.4,39.1,29.97,WNW,295,7.0,9.0,65,0.00,,,0.00,Wunderground v.1.15,2013-02-08 09:59:00,
2013-02-08 02:09:00,50.2,39.3,29.97,NW,307,9.0,9.0,66,0.00,,,0.00,Wunderground v.1.15,2013-02-08 10:09:00,
2013-02-08 02:19:00,50.2,39.7,29.96,West,264,8.0,12.0,67,0.00,,,0.00,Wunderground v.1.15,2013-02-08 10:19:00,
2013-02-08 02:30:00,50.1,39.6,29.96,WNW,290,7.0,12.0,67,0.00,,,0.00,Wunderground v.1.15,2013-02-08 10:30:00,
2013-02-08 02:39:00,49.9,39.8,29.96,WNW,302,6.0,6.0,68,0.00,,,0.00,Wunderground v.1.15,2013-02-08 10:39:00,
2013-02-08 02:49:00,49.8,39.7,29.96,NNW,327,7.0,11.0,68,0.00,,,0.00,Wunderground v.1.15,2013-02-08 10:49:00,
2013-02-08 02:59:00,49.8,38.9,29.96,WNW,292,7.0,7.0,66,0.00,,,0.00,Wunderground v.1.15,2013-02-08 10:59:00,
2013-02-08 03:09:00,49.6,39.1,29.96,NW,313,5.0,5.0,67,0.00,,,0.00,Wunderground v.1.15,2013-02-08 11:09:00,
2013-02-08 03:20:00,49.8,39.3,29.96,WNW,288,9.0,9.0,67,0.00,,,0.00,Wunderground v.1.15,2013-02-08 11:20:00,
2013-02-08 03:30:00,49.8,39.3,29.96,West,280,7.0,11.0,67,0.00,,,0.00,Wunderground v.1.15,2013-02-08 11:30:00,
2013-02-08 03:39:00,49.6,39.1,29.96,WNW,292,6.0,6.0,67,0.00,,,0.00,Wunderground v.1.15,2013-02-08 11:39:00,
2013-02-08 03:50:00,49.5,39.0,29.96,WNW,302,6.0,6.0,67,0.00,,,0.00,Wunderground v.1.15,2013-02-08 11:50:00,
2013-02-08 03:59:00,49.5,39.0,29.96,NW,321,6.0,6.0,67,0.00,,,0.00,Wunderground v.1.15,2013-02-08 11:59:00,
2013-02-08 04:09:00,49.4,38.9,29.96,WNW,303,7.0,12.0,67,0.00,,,0.00,Wunderground v.1.15,2013-02-08 12:09:00,
2013-02-08 04:20:00,49.4,38.5,29.96,NW,325,6.0,6.0,66,0.00,,,0.00,Wunderground v.1.15,2013-02-08 12:20:00,
2013-02-08 04:30:00,49.1,39.0,29.96,WNW,286,4.0,4.0,68,0.00,,,0.00,Wunderground v.1.15,2013-02-08 12:30:00,
2013-02-08 04:40:00,48.9,39.2,29.96,WNW,297,3.0,3.0,69,0.00,,,0.00,Wunderground v.1.15,2013-02-08 12:40:00,
2013-02-08 04:49:00,48.8,39.1,29.96,WNW,294,3.0,3.0,69,0.00,,,0.00,Wunderground v.1.15,2013-02-08 12:49:00,
2013-02-08 04:59:00,48.9,39.2,29.96,WNW,284,5.0,5.0,69,0.00,,,0.00,Wunderground v.1.15,2013-02-08 12:59:00,
2013-02-08 05:09:00,49.1,38.6,29.96,West,275,6.0,7.0,67,0.00,,,0.00,Wunderground v.1.15,2013-02-08 13:09:00,
2013-02-08 05:20:00,49.1,39.0,29.96,NW,308,4.0,6.0,68,0.00,,,0.00,Wunderground v.1.15,2013-02-08 13:20:00,
2013-02-08 05:29:00,48.9,38.8,29.96,West,266,4.0,6.0,68,0.00,,,0.00,Wunderground v.1.15,2013-02-08 13:29:00,
2013-02-08 05:39:00,48.6,38.9,29.96,WNW,282,3.0,6.0,69,0.00,,,0.00,Wunderground v.1.15,2013-02-08 13:39:00,
2013-02-08 05:49:00,48.5,38.8,29.96,WNW,284,2.0,4.0,69,0.00,,,0.00,Wunderground v.1.15,2013-02-08 13:49:00,
2013-02-08 05:59:00,48.2,38.9,29.96,WNW,282,2.0,2.0,70,0.00,,,0.00,Wunderground v.1.15,2013-02-08 13:59:00,
2013-02-08 06:09:00,48.0,38.7,29.96,WNW,296,4.0,4.0,70,0.00,,,0.00,Wunderground v.1.15,2013-02-08 14:09:00,
2013-02-08 06:19:00,47.7,38.4,29.97,WNW,296,2.0,2.0,70,0.00,,,0.00,Wunderground v.1.15,2013-02-08 14:19:00,
2013-02-08 06:30:00,47.4,38.1,29.97,WNW,296,1.0,1.0,70,0.00,,,0.00,Wunderground v.1.15,2013-02-08 14:30:00,
2013-02-08 06:40:00,47.0,38.4,29.97,WSW,254,1.0,1.0,72,0.00,,,0.00,Wunderground v.1.15,2013-02-08 14:40:00,
2013-02-08 06:50:00,47.0,38.4,29.97,WSW,254,0.0,0.0,72,0.00,,,0.00,Wunderground v.1.15,2013-02-08 14:50:00,
2013-02-08 06:59:00,47.1,38.5,29.97,WSW,254,0.0,0.0,72,0.00,,,0.00,Wunderground v.1.15,2013-02-08 14:59:00,
2013-02-08 07:09:00,47.1,38.5,29.97,WSW,254,0.0,1.0,72,0.00,,,0.00,Wunderground v.1.15,2013-02-08 15:09:00,
2013-02-08 07:19:00,47.3,38.7,29.98,WSW,254,0.0,0.0,72,0.00,,,0.00,Wunderground v.1.15,2013-02-08 15:19:00,
2013-02-08 07:30:00,47.4,38.8,29.98,WSW,254,0.0,0.0,72,0.00,,,0.00,Wunderground v.1.15,2013-02-08 15:30:00,
2013-02-08 07:39:00,47.9,38.9,29.98,WSW,254,1.0,1.0,71,0.00,,,0.00,Wunderground v.1.15,2013-02-08 15:39:00,
2013-02-08 07:50:00,48.2,39.2,29.98,WSW,254,1.0,2.0,71,0.00,,,0.00,Wunderground v.1.15,2013-02-08 15:50:00,
2013-02-08 08:00:00,48.8,39.4,29.97,WSW,254,1.0,2.0,70,0.00,,,0.00,Wunderground v.1.15,2013-02-08 16:00:00,
2013-02-08 08:09:00,49.2,39.1,29.97,WSW,256,2.0,4.0,68,0.00,,,0.00,Wunderground v.1.15,2013-02-08 16:09:00,
2013-02-08 08:19:00,49.4,39.3,29.98,WNW,297,3.0,3.0,68,0.00,,,0.00,Wunderground v.1.15,2013-02-08 16:19:00,
2013-02-08 08:29:00,49.9,39.4,29.97,NW,312,3.0,3.0,67,0.00,,,0.00,Wunderground v.1.15,2013-02-08 16:29:00,
2013-02-08 08:39:00,50.4,39.5,29.97,WNW,300,4.0,4.0,66,0.00,,,0.00,Wunderground v.1.15,2013-02-08 16:39:00,
2013-02-08 08:49:00,51.3,39.9,29.97,West,275,5.0,6.0,65,0.00,,,0.00,Wunderground v.1.15,2013-02-08 16:49:00,
2013-02-08 09:00:00,51.7,38.7,29.97,WSW,251,5.0,6.0,61,0.00,,,0.00,Wunderground v.1.15,2013-02-08 17:00:00,
2013-02-08 09:09:00,52.2,37.4,29.97,West,268,7.0,7.0,57,0.00,,,0.00,Wunderground v.1.15,2013-02-08 17:09:00,
2013-02-08 09:19:00,52.2,36.5,29.97,West,279,7.0,10.0,55,0.00,,,0.00,Wunderground v.1.15,2013-02-08 17:19:00,
2013-02-08 09:29:00,51.6,36.9,29.97,WSW,254,8.0,14.0,57,0.00,,,0.00,Wunderground v.1.15,2013-02-08 17:29:00,
2013-02-08 09:39:00,51.6,37.7,29.97,NW,323,6.0,6.0,59,0.00,,,0.00,Wunderground v.1.15,2013-02-08 17:39:00,
2013-02-08 09:50:00,51.3,38.3,29.97,West,265,8.0,8.0,61,0.00,,,0.00,Wunderground v.1.15,2013-02-08 17:50:00,
2013-02-08 09:59:00,51.3,38.3,29.97,WNW,288,7.0,7.0,61,0.00,,,0.00,Wunderground v.1.15,2013-02-08 17:59:00,
2013-02-08 10:09:00,52.5,39.4,29.97,West,262,8.0,8.0,61,0.00,,,0.00,Wunderground v.1.15,2013-02-08 18:09:00,
2013-02-08 10:19:00,52.8,37.1,29.97,West,263,10.0,10.0,55,0.00,,,0.00,Wunderground v.1.15,2013-02-08 18:19:00,
2013-02-08 10:30:00,52.8,38.4,29.96,NW,305,6.0,7.0,58,0.00,,,0.00,Wunderground v.1.15,2013-02-08 18:30:00,
2013-02-08 10:40:00,52.8,38.9,29.96,SW,221,8.0,8.0,59,0.00,,,0.00,Wunderground v.1.15,2013-02-08 18:40:00,
2013-02-08 10:50:00,52.8,39.3,29.96,WSW,256,8.0,8.0,60,0.00,,,0.00,Wunderground v.1.15,2013-02-08 18:50:00,
2013-02-08 10:59:00,53.2,38.8,29.96,SW,229,10.0,10.0,58,0.00,,,0.00,Wunderground v.1.15,2013-02-08 18:59:00,
2013-02-08 11:09:00,52.8,38.9,29.96,West,281,9.0,9.0,59,0.00,,,0.00,Wunderground v.1.15,2013-02-08 19:09:00,
2013-02-08 11:19:00,53.9,39.0,29.96,WSW,248,9.0,13.0,57,0.00,,,0.00,Wunderground v.1.15,2013-02-08 19:19:00,
2013-02-08 11:29:00,53.1,38.7,29.96,WNW,298,9.0,10.0,58,0.00,,,0.00,Wunderground v.1.15,2013-02-08 19:29:00,
2013-02-08 11:39:00,53.1,38.3,29.96,WSW,245,10.0,15.0,57,0.00,,,0.00,Wunderground v.1.15,2013-02-08 19:39:00,
2013-02-08 11:50:00,52.2,37.9,29.95,WSW,240,11.0,20.0,58,0.00,,,0.00,Wunderground v.1.15,2013-02-08 19:50:00,
2013-02-08 11:59:00,51.9,38.0,29.94,SW,223,12.0,12.0,59,0.00,,,0.00,Wunderground v.1.15,2013-02-08 19:59:00,
2013-02-08 12:09:00,50.8,37.8,29.94,West,279,11.0,14.0,61,0.00,,,0.00,Wunderground v.1.15,2013-02-08 20:09:00,
2013-02-08 12:19:00,50.8,39.5,29.94,WSW,237,12.0,12.0,65,0.00,,,0.00,Wunderground v.1.15,2013-02-08 20:19:00,
2013-02-08 12:29:00,51.4,39.2,29.93,WSW,240,12.0,12.0,63,0.00,,,0.00,Wunderground v.1.15,2013-02-08 20:29:00,
2013-02-08 12:39:00,52.2,38.3,29.93,West,263,10.0,10.0,59,0.00,,,0.00,Wunderground v.1.15,2013-02-08 20:39:00,
2013-02-08 12:50:00,52.6,38.7,29.92,SW,228,10.0,10.0,59,0.00,,,0.00,Wunderground v.1.15,2013-02-08 20:50:00,
2013-02-08 12:59:00,52.0,38.1,29.91,WSW,244,9.0,9.0,59,0.00,,,0.00,Wunderground v.1.15,2013-02-08 20:59:00,
2013-02-08 13:09:00,52.3,37.5,29.91,WSW,249,12.0,12.0,57,0.00,,,0.00,Wunderground v.1.15,2013-02-08 21:09:00,
2013-02-08 13:19:00,52.2,37.9,29.91,WSW,252,10.0,11.0,58,0.00,,,0.00,Wunderground v.1.15,2013-02-08 21:19:00,
2013-02-08 13:30:00,53.2,38.8,29.91,WSW,255,10.0,10.0,58,0.00,,,0.00,Wunderground v.1.15,2013-02-08 21:30:00,
2013-02-08 13:39:00,52.5,38.1,29.91,WSW,242,11.0,11.0,58,0.00,,,0.00,Wunderground v.1.15,2013-02-08 21:39:00,
2013-02-08 13:50:00,52.2,38.3,29.90,WSW,257,11.0,15.0,59,0.00,,,0.00,Wunderground v.1.15,2013-02-08 21:50:00,
2013-02-08 14:00:00,52.3,38.8,29.90,WSW,256,12.0,12.0,60,0.00,,,0.00,Wunderground v.1.15,2013-02-08 22:00:00,
2013-02-08 14:09:00,51.9,39.3,29.90,West,275,10.0,10.0,62,0.00,,,0.00,Wunderground v.1.15,2013-02-08 22:09:00,
2013-02-08 14:20:00,51.4,39.2,29.90,West,277,9.0,13.0,63,0.00,,,0.00,Wunderground v.1.15,2013-02-08 22:20:00,
2013-02-08 14:29:00,50.7,38.6,29.90,NNW,338,8.0,8.0,63,0.00,,,0.00,Wunderground v.1.15,2013-02-08 22:29:00,
2013-02-08 14:39:00,50.5,38.8,29.90,WNW,291,8.0,8.0,64,0.00,,,0.00,Wunderground v.1.15,2013-02-08 22:39:00,
2013-02-08 14:49:00,50.4,39.1,29.89,West,279,8.0,8.0,65,0.00,,,0.00,Wunderground v.1.15,2013-02-08 22:49:00,
2013-02-08 14:59:00,50.7,38.6,29.89,West,274,10.0,10.0,63,0.00,,,0.00,Wunderground v.1.15,2013-02-08 22:59:00,
2013-02-08 15:09:00,50.4,39.1,29.89,West,277,9.0,9.0,65,0.00,,,0.00,Wunderground v.1.15,2013-02-08 23:09:00,
2013-02-08 15:20:00,50.4,39.1,29.88,West,265,10.0,10.0,65,0.00,,,0.00,Wunderground v.1.15,2013-02-08 23:20:00,
2013-02-08 15:30:00,50.7,39.4,29.88,WNW,286,9.0,12.0,65,0.00,,,0.00,Wunderground v.1.15,2013-02-08 23:30:00,
2013-02-08 15:39:00,50.8,39.5,29.88,West,259,8.0,9.0,65,0.00,,,0.00,Wunderground v.1.15,2013-02-08 23:39:00,
2013-02-08 15:50:00,51.4,40.0,29.88,WSW,250,9.0,13.0,65,0.00,,,0.00,Wunderground v.1.15,2013-02-08 23:50:00,
2013-02-08 16:00:00,51.9,39.7,29.88,NW,321,10.0,10.0,63,0.00,,,0.00,Wunderground v.1.15,2013-02-09 00:00:00,
2013-02-08 16:10:00,52.5,39.8,29.88,WNW,294,7.0,7.0,62,0.00,,,0.00,Wunderground v.1.15,2013-02-09 00:10:00,
2013-02-08 16:19:00,51.7,39.5,29.88,West,261,9.0,9.0,63,0.00,,,0.00,Wunderground v.1.15,2013-02-09 00:19:00,
2013-02-08 16:29:00,51.1,39.3,29.88,WNW,284,10.0,11.0,64,0.00,,,0.00,Wunderground v.1.15,2013-02-09 00:29:00,
2013-02-08 16:39:00,50.5,39.9,29.88,West,277,8.0,14.0,67,0.00,,,0.00,Wunderground v.1.15,2013-02-09 00:39:00,
2013-02-08 16:50:00,50.7,39.7,29.88,WNW,292,8.0,8.0,66,0.00,,,0.00,Wunderground v.1.15,2013-02-09 00:50:00,
2013-02-08 16:59:00,51.1,39.7,29.88,WNW,288,9.0,12.0,65,0.00,,,0.00,Wunderground v.1.15,2013-02-09 00:59:00,
2013-02-08 17:09:00,51.6,40.2,29.88,WNW,300,8.0,8.0,65,0.00,,,0.00,Wunderground v.1.15,2013-02-09 01:09:00,
2013-02-08 17:19:00,51.3,39.9,29.87,NW,317,8.0,8.0,65,0.00,,,0.00,Wunderground v.1.15,2013-02-09 01:19:00,
2013-02-08 17:30:00,51.0,39.2,29.87,WSW,252,6.0,6.0,64,0.00,,,0.00,Wunderground v.1.15,2013-02-09 01:30:00,
2013-02-08 17:40:00,50.8,39.1,29.87,NNW,328,5.0,5.0,64,0.00,,,0.00,Wunderground v.1.15,2013-02-09 01:40:00,
2013-02-08 17:49:00,50.7,38.6,29.87,WNW,303,4.0,4.0,63,0.00,,,0.00,Wunderground v.1.15,2013-02-09 01:49:00,
2013-02-08 17:59:00,50.7,39.0,29.88,WNW,286,4.0,4.0,64,0.00,,,0.00,Wunderground v.1.15,2013-02-09 01:59:00,
2013-02-08 18:09:00,50.5,38.8,29.88,NW,308,3.0,5.0,64,0.00,,,0.00,Wunderground v.1.15,2013-02-09 02:09:00,
2013-02-08 18:19:00,50.5,38.8,29.88,NNW,344,3.0,3.0,64,0.00,,,0.00,Wunderground v.1.15,2013-02-09 02:19:00,
2013-02-08 18:30:00,49.9,39.0,29.88,NNW,345,2.0,2.0,66,0.00,,,0.00,Wunderground v.1.15,2013-02-09 02:30:00,
2013-02-08 18:40:00,49.5,39.4,29.88,NNW,348,2.0,5.0,68,0.00,,,0.00,Wunderground v.1.15,2013-02-09 02:40:00,
2013-02-08 18:49:00,48.8,39.4,29.88,North,355,5.0,5.0,70,0.00,,,0.00,Wunderground v.1.15,2013-02-09 02:49:00,
2013-02-08 18:59:00,48.0,39.4,29.89,North,355,4.0,4.0,72,0.00,,,0.00,Wunderground v.1.15,2013-02-09 02:59:00,
2013-02-08 19:09:00,47.4,39.2,29.89,North,355,2.0,4.0,73,0.00,,,0.00,Wunderground v.1.15,2013-02-09 03:09:00,
2013-02-08 19:19:00,46.5,39.0,29.89,North,355,4.0,4.0,75,0.00,,,0.00,Wunderground v.1.15,2013-02-09 03:19:00,
2013-02-08 19:30:00,45.8,38.7,29.90,North,355,3.0,3.0,76,0.00,,,0.00,Wunderground v.1.15,2013-02-09 03:30:00,
2013-02-08 19:40:00,45.1,38.3,29.90,NNE,13,6.0,6.0,77,0.00,,,0.00,Wunderground v.1.15,2013-02-09 03:40:00,
2013-02-08 19:50:00,44.6,38.2,29.89,NNE,12,6.0,6.0,78,0.00,,,0.00,Wunderground v.1.15,2013-02-09 03:50:00,
2013-02-08 19:59:00,44.5,38.4,29.90,North,5,7.0,7.0,79,0.00,,,0.00,Wunderground v.1.15,2013-02-09 03:59:00,
2013-02-08 20:09:00,43.9,37.8,29.90,North,5,8.0,8.0,79,0.00,,,0.00,Wunderground v.1.15,2013-02-09 04:09:00,
2013-02-08 20:19:00,43.5,37.4,29.91,North,355,7.0,7.0,79,0.00,,,0.00,Wunderground v.1.15,2013-02-09 04:19:00,
2013-02-08 20:29:00,43.2,37.4,29.91,North,9,5.0,6.0,80,0.00,,,0.00,Wunderground v.1.15,2013-02-09 04:29:00,
2013-02-08 20:39:00,42.9,37.2,29.91,North,9,4.0,6.0,80,0.00,,,0.00,Wunderground v.1.15,2013-02-09 04:39:00,
2013-02-08 20:50:00,43.2,37.4,29.91,North,9,4.0,4.0,80,0.00,,,0.00,Wunderground v.1.15,2013-02-09 04:50:00,
2013-02-08 21:00:00,43.2,37.4,29.91,North,5,2.0,2.0,80,0.00,,,0.00,Wunderground v.1.15,2013-02-09 05:00:00,
2013-02-08 21:09:00,42.8,37.1,29.91,North,5,4.0,4.0,80,0.00,,,0.00,Wunderground v.1.15,2013-02-09 05:09:00,
2013-02-08 21:20:00,42.5,36.8,29.91,North,5,4.0,6.0,80,0.00,,,0.00,Wunderground v.1.15,2013-02-09 05:20:00,
2013-02-08 21:30:00,42.1,36.7,29.92,North,9,4.0,5.0,81,0.00,,,0.00,Wunderground v.1.15,2013-02-09 05:30:00,
2013-02-08 21:40:00,41.8,36.4,29.92,North,9,3.0,3.0,81,0.00,,,0.00,Wunderground v.1.15,2013-02-09 05:40:00,
2013-02-08 21:50:00,41.6,36.5,29.92,North,9,3.0,3.0,82,0.00,,,0.00,Wunderground v.1.15,2013-02-09 05:50:00,
2013-02-08 21:59:00,41.5,36.4,29.92,North,9,0.0,0.0,82,0.00,,,0.00,Wunderground v.1.15,2013-02-09 05:59:00,
2013-02-08 22:09:00,41.5,36.4,29.92,North,9,1.0,3.0,82,0.00,,,0.00,Wunderground v.1.15,2013-02-09 06:09:00,
2013-02-08 22:19:00,41.5,36.4,29.93,North,9,3.0,4.0,82,0.00,,,0.00,Wunderground v.1.15,2013-02-09 06:19:00,
2013-02-08 22:29:00,41.5,36.7,29.93,North,9,3.0,5.0,83,0.00,,,0.00,Wunderground v.1.15,2013-02-09 06:29:00,
2013-02-08 22:39:00,41.5,36.7,29.93,North,9,3.0,4.0,83,0.00,,,0.00,Wunderground v.1.15,2013-02-09 06:39:00,
2013-02-08 22:50:00,41.5,36.7,29.93,North,9,4.0,4.0,83,0.00,,,0.00,Wunderground v.1.15,2013-02-09 06:50:00,
2013-02-08 23:00:00,41.6,36.8,29.94,North,9,3.0,3.0,83,0.00,,,0.00,Wunderground v.1.15,2013-02-09 07:00:00,
2013-02-08 23:09:00,41.6,36.8,29.94,North,9,4.0,4.0,83,0.00,,,0.00,Wunderground v.1.15,2013-02-09 07:09:00,
2013-02-08 23:19:00,41.5,36.4,29.94,North,10,1.0,3.0,82,0.00,,,0.00,Wunderground v.1.15,2013-02-09 07:19:00,
2013-02-08 23:29:00,41.5,36.4,29.94,North,9,2.0,3.0,82,0.00,,,0.00,Wunderground v.1.15,2013-02-09 07:29:00,
2013-02-08 23:39:00,41.2,36.1,29.94,North,9,1.0,3.0,82,0.00,,,0.00,Wunderground v.1.15,2013-02-09 07:39:00,
2013-02-08 23:49:00,41.1,36.3,29.94,North,10,2.0,2.0,83,0.00,,,0.00,Wunderground v.1.15,2013-02-09 07:49:00,